FW2178 Weather Reports


Display with metric or nautical units.
time (UTC)temp
F
wind
direction
speed
MPH
gust
MPH
rain 1hr
in
rain 24hr
in
rain mn
in
humidity
%
barometer
mb
20260505065223 58 131 0.0 0.0 0.00 0.00 0.00 84 1010.2
20260505064723 58 131 0.0 0.0 0.00 0.00 0.00 84 1010.3
20260505064223 58 130 0.0 0.0 0.00 0.00 0.00 87 1010.3
20260505063723 58 130 0.0 0.0 0.00 0.00 0.00 87 1010.2
20260505063223 58 130 0.0 0.0 0.00 0.00 0.00 87 1010.1
20260505062723 58 130 0.0 0.0 0.00 0.00 0.00 86 1010.1
20260505062223 58 130 0.0 0.0 0.00 0.00 0.00 84 1010.0
20260505061723 57 130 0.0 0.0 0.00 0.00 0.00 85 1009.9
20260505061223 57 130 0.0 0.0 0.00 0.00 0.00 84 1010.0
20260505060724 58 130 0.0 0.0 0.00 0.00 0.00 83 1009.9
20260505060224 58 130 0.0 0.0 0.00 0.00 0.00 83 1009.9
20260505060014 58 130 0.0 0.0 0.00 0.00 0.00 82 1010.0
20260505055558 59 130 0.0 0.0 0.00 0.00 0.00 81 1009.8
20260505055549 58 130 0.0 0.0 0.00 0.00 0.00 81 1009.7
20260505054222 59 130 0.0 0.0 0.00 0.00 0.00 81 1009.6
20260505053724 59 130 0.0 0.0 0.00 0.00 0.00 80 1009.5
20260505053222 60 131 0.0 0.0 0.00 0.00 0.00 78 1009.7
20260505052723 60 131 0.0 0.0 0.00 0.00 0.00 78 1009.5
20260505052222 60 131 0.0 0.0 0.00 0.00 0.00 78 1009.5
20260505051723 60 131 0.0 0.0 0.00 0.00 0.00 77 1009.4
20260505051222 60 131 0.0 0.0 0.00 0.00 0.00 76 1009.4
20260505051015 60 131 0.0 0.0 0.00 0.00 0.00 75 1009.5
20260505050222 60 131 0.0 0.0 0.00 0.00 0.00 75 1009.4
20260505041711 61 130 0.0 0.0 0.00 0.00 0.00 77 1008.8
20260505041210 62 130 0.0 0.0 0.00 0.00 0.00 75 1008.9
20260505040711 62 130 0.0 0.0 0.00 0.00 0.00 73 1008.8
20260505040211 62 130 0.0 0.0 0.00 0.00 0.00 73 1008.7
20260505035711 62 130 0.0 0.0 0.00 0.00 0.00 73 1008.6
20260505035209 62 130 0.0 0.0 0.00 0.00 0.00 74 1008.5
20260505034711 63 129 0.0 0.0 0.00 0.00 0.00 75 1008.6
20260505034506 63 129 0.0 0.0 0.00 0.00 0.00 72 1008.5
20260505034012 63 129 0.0 0.0 0.00 0.00 0.00 73 1008.3
20260505033209 64 129 0.0 0.0 0.00 0.00 0.00 72 1008.4
20260505032959 64 128 0.0 0.0 0.00 0.00 0.00 72 1008.3
20260505032202 64 128 0.0 0.0 0.00 0.00 0.00 72 1008.1
20260505031703 65 128 0.0 0.0 0.00 0.00 0.00 71 1008.4
20260505031453 65 128 0.0 0.0 0.00 0.00 0.00 70 1007.9
20260505031004 66 128 0.0 0.0 0.00 0.00 0.00 70 1008.1
20260505030202 66 128 0.0 0.0 0.00 0.00 0.00 66 1008.0
20260505025702 67 128 0.0 0.0 0.00 0.00 0.00 69 1008.1
20260505025205 67 128 0.0 0.0 0.00 0.00 0.00 67 1007.7
20260505024702 68 128 0.0 0.0 0.00 0.00 0.00 63 1007.8
20260505024202 67 129 0.0 0.0 0.00 0.00 0.00 61 1007.6
20260505023706 67 137 0.0 0.0 0.00 0.00 0.00 67 1007.7
20260505023203 68 137 0.0 0.0 0.00 0.00 0.00 66 1007.7
20260505022702 68 137 0.0 0.0 0.00 0.00 0.00 66 1007.8
20260505022205 68 137 0.0 0.0 0.00 0.00 0.00 67 1007.4
20260505021702 68 137 0.0 0.0 0.00 0.00 0.00 67 1007.7
20260505021202 69 137 0.0 0.0 0.00 0.00 0.00 64 1007.6
20260505021003 69 137 0.0 0.0 0.00 0.00 0.00 64 1007.5
20260505020202 69 137 0.0 0.0 0.00 0.00 0.00 64 1007.8
20260505015753 70 138 0.0 0.0 0.00 0.00 0.00 57 1007.7
20260505015733 70 137 0.0 0.0 0.00 0.00 0.00 63 1007.7
20260505014705 70 138 0.0 0.0 0.00 0.00 0.00 60 1007.9
20260505014203 70 138 0.0 0.0 0.00 0.00 0.00 65 1007.7
20260505013702 70 137 0.0 0.0 0.00 0.00 0.00 63 1007.8
20260505013206 71 137 0.0 0.0 0.00 0.00 0.00 61 1007.8
20260505012702 71 137 0.0 0.0 0.00 0.00 0.00 61 1007.7
20260505012202 71 137 0.0 0.0 0.00 0.00 0.00 55 1007.8
20260505011705 72 125 0.0 0.0 0.00 0.00 0.00 54 1007.8
20260505011203 72 135 0.0 0.0 0.00 0.00 0.00 54 1007.7
20260505010702 73 136 0.0 0.0 0.00 0.00 0.00 51 1007.7
20260505010205 73 119 0.0 0.0 0.00 0.00 0.00 48 1007.7
20260505005703 73 150 0.0 0.0 0.00 0.00 0.00 53 1007.8
20260505005204 74 159 0.0 0.0 0.00 0.00 0.00 55 1007.6
20260505004705 74 119 0.0 1.0 0.00 0.00 0.00 54 1007.6
20260505004203 75 149 0.0 1.0 0.00 0.00 0.00 51 1007.8
20260505003702 75 126 0.0 1.0 0.00 0.00 0.00 45 1007.7
20260505003205 74 177 1.0 1.0 0.00 0.00 0.00 44 1007.7
20260505002702 75 131 0.0 1.0 0.00 0.00 0.00 50 1007.6
20260505002202 75 142 0.0 1.0 0.00 0.00 0.00 46 1007.7
20260505002003 76 113 0.0 1.0 0.00 0.00 0.00 40 1007.9
20260505001202 74 169 0.0 0.0 0.00 0.00 0.00 47 1007.7
20260505000704 74 186 0.0 1.0 0.00 0.00 0.00 44 1007.6
20260505000507 75 149 0.0 1.0 0.00 0.00 0.00 58 1007.9
20260504235702 76 144 0.0 0.0 0.00 0.00 0.00 53 1007.7
20260504235205 76 144 0.0 0.0 0.00 0.00 0.00 48 1007.9
20260504234702 76 161 0.0 0.0 0.00 0.00 0.00 46 1007.9
20260504234202 76 141 0.0 0.0 0.00 0.00 0.00 50 1007.8
20260504233705 76 140 0.0 2.0 0.00 0.00 0.00 46 1007.8
20260504233203 76 149 0.0 2.0 0.00 0.00 0.00 44 1007.7
20260504232709 76 144 0.0 0.0 0.00 0.00 0.00 45 1008.0
20260504232208 76 158 0.0 0.0 0.00 0.00 0.00 46 1008.0
20260504231704 76 145 0.0 0.0 0.00 0.00 0.00 46 1007.9
20260504231203 77 140 0.0 0.0 0.00 0.00 0.00 49 1007.9
20260504230955 77 165 0.0 0.0 0.00 0.00 0.00 43 1007.9
20260504230202 77 146 0.0 0.0 0.00 0.00 0.00 46 1007.9
20260504225949 77 136 0.0 0.0 0.00 0.00 0.00 45 1008.0
20260504225203 77 149 0.0 0.0 0.00 0.00 0.00 44 1008.1
20260504224954 77 137 0.0 0.0 0.00 0.00 0.00 43 1008.1
20260504224203 77 163 0.0 0.0 0.00 0.00 0.00 44 1008.0
20260504223702 77 137 0.0 0.0 0.00 0.00 0.00 44 1008.1
20260504223512 77 146 0.0 0.0 0.00 0.00 0.00 45 1008.3
20260504222702 76 65 0.0 0.0 0.00 0.00 0.00 44 1008.4
20260504222202 77 106 0.0 0.0 0.00 0.00 0.00 42 1008.3
20260504221705 76 37 0.0 0.0 0.00 0.00 0.00 44 1008.6
20260504221203 77 152 0.0 0.0 0.00 0.00 0.00 45 1008.8
20260504220702 77 134 0.0 0.0 0.00 0.00 0.00 45 1008.7
20260504220209 76 136 0.0 0.0 0.00 0.00 0.00 43 1008.6
20260504215701 76 141 0.0 0.0 0.00 0.00 0.00 46 1008.6
20260504215202 76 131 0.0 0.0 0.00 0.00 0.00 41 1008.7
20260504214705 76 265 0.0 0.0 0.00 0.00 0.00 43 1008.7
20260504214202 76 147 0.0 0.0 0.00 0.00 0.00 43 1008.6
20260504213947 76 150 0.0 0.0 0.00 0.00 0.00 42 1008.7
20260504213204 76 158 0.0 0.0 0.00 0.00 0.00 41 1008.8
20260504212702 76 142 0.0 0.0 0.00 0.00 0.00 41 1008.9
20260504212202 76 148 0.0 0.0 0.00 0.00 0.00 41 1008.7
20260504211704 76 169 0.0 0.0 0.00 0.00 0.00 40 1008.8
20260504211447 76 136 0.0 0.0 0.00 0.00 0.00 39 1008.9
20260504210702 76 135 0.0 0.0 0.00 0.00 0.00 40 1008.9
20260504210205 76 164 0.0 0.0 0.00 0.00 0.00 40 1008.9
20260504205955 76 140 0.0 0.0 0.00 0.00 0.00 40 1008.9
20260504205202 76 144 0.0 0.0 0.00 0.00 0.00 39 1009.0
20260504204705 76 173 0.0 0.0 0.00 0.00 0.00 38 1009.2
20260504204203 75 149 0.0 0.0 0.00 0.00 0.00 39 1008.9
20260504203703 75 153 0.0 0.0 0.00 0.00 0.00 38 1009.1
20260504203207 75 146 0.0 0.0 0.00 0.00 0.00 38 1009.1
20260504202705 75 141 0.0 0.0 0.00 0.00 0.00 38 1008.9
20260504202455 75 142 0.0 0.0 0.00 0.00 0.00 40 1008.9
20260504201702 75 141 0.0 0.0 0.00 0.00 0.00 41 1009.2
20260504201204 76 157 0.0 0.0 0.00 0.00 0.00 40 1009.0
20260504200705 75 152 0.0 0.0 0.00 0.00 0.00 42 1009.0
20260504200457 75 170 0.0 0.0 0.00 0.00 0.00 43 1008.9
20260504195703 75 148 0.0 0.0 0.00 0.00 0.00 43 1009.0
20260504195205 75 159 0.0 0.0 0.00 0.00 0.00 44 1009.1
20260504194702 75 154 0.0 0.0 0.00 0.00 0.00 44 1009.0
20260504194203 75 69 0.0 0.0 0.00 0.00 0.00 43 1009.0
20260504193704 75 143 0.0 0.0 0.00 0.00 0.00 43 1009.0
20260504193244 74 117 0.0 0.0 0.00 0.00 0.00 42 1008.9
20260504192201 74 140 0.0 0.0 0.00 0.00 0.00 43 1009.1
20260504191705 74 133 0.0 0.0 0.00 0.00 0.00 41 1009.0
20260504191201 74 145 0.0 0.0 0.00 0.00 0.00 42 1009.2
20260504190702 73 159 0.0 0.0 0.00 0.00 0.00 45 1009.0
20260504190204 73 164 0.0 0.0 0.00 0.00 0.00 44 1009.4
20260504185702 73 156 0.0 0.0 0.00 0.00 0.00 48 1008.9
20260504185202 73 129 0.0 0.0 0.00 0.00 0.00 46 1009.1
20260504184705 72 166 0.0 0.0 0.00 0.00 0.00 47 1009.4
20260504184202 72 139 0.0 0.0 0.00 0.00 0.00 45 1009.5
20260504183952 72 194 0.0 0.0 0.00 0.00 0.00 50 1009.3
20260504183202 71 151 0.0 0.0 0.00 0.00 0.00 48 1009.2
20260504183015 71 142 0.0 0.0 0.00 0.00 0.00 48 1009.5
20260504182202 71 123 0.0 0.0 0.00 0.00 0.00 47 1009.6
20260504181703 71 149 0.0 0.0 0.00 0.00 0.00 49 1009.4
20260504181453 71 173 0.0 0.0 0.00 0.00 0.00 47 1009.3
20260504181000 70 193 0.0 0.0 0.00 0.00 0.00 48 1009.3
20260504180202 71 168 0.0 0.0 0.00 0.00 0.00 56 1009.4
20260504175703 70 142 0.0 0.0 0.00 0.00 0.00 49 1009.4
20260504175206 70 165 0.0 0.0 0.00 0.00 0.00 54 1009.2
20260504174702 70 138 0.0 0.0 0.00 0.00 0.00 50 1009.3
20260504174202 70 148 0.0 0.0 0.00 0.00 0.00 51 1009.2
20260504173705 70 159 0.0 0.0 0.00 0.00 0.00 47 1009.2
20260504173206 69 135 0.0 0.0 0.00 0.00 0.00 58 1009.3
20260504172705 68 154 0.0 0.0 0.00 0.00 0.00 59 1009.2
20260504172205 68 151 0.0 0.0 0.00 0.00 0.00 64 1009.2
20260504171747 68 142 0.0 0.0 0.00 0.00 0.00 61 1009.5
20260504171729 68 138 0.0 0.0 0.00 0.00 0.00 60 1009.3
20260504170946 67 145 0.0 0.0 0.00 0.00 0.00 63 1009.4
20260504170205 67 145 0.0 0.0 0.00 0.00 0.00 64 1009.5
20260504160203 59 148 0.0 0.0 0.00 0.00 0.00 86 1009.0
20260504150702 54 134 0.0 0.0 0.00 0.00 0.00 92 1008.9
20260504150201 53 134 0.0 0.0 0.00 0.00 0.00 93 1008.9
20260504141204 50 134 0.0 0.0 0.00 0.00 0.00 95 1008.5
20260504140702 50 134 0.0 0.0 0.00 0.00 0.00 95 1008.6
20260504140504 50 134 0.0 0.0 0.00 0.00 0.00 95 1008.5
20260504130703 49 135 0.0 0.0 0.00 0.00 0.00 96 1008.4
20260504130205 49 135 0.0 0.0 0.00 0.00 0.00 95 1008.2
20260504120204 50 136 0.0 0.0 0.00 0.00 0.00 93 1008.1
20260504110703 50 135 0.0 0.0 0.00 0.00 0.00 92 1008.3
20260504110202 51 135 0.0 0.0 0.00 0.00 0.00 92 1008.1
20260504100203 51 139 0.0 0.0 0.00 0.00 0.00 91 1007.9
20260504081701 53 140 0.0 0.0 0.00 0.00 0.00 85 1008.2
20260504081207 53 140 0.0 0.0 0.00 0.00 0.00 84 1008.1
20260504080702 53 140 0.0 0.0 0.00 0.00 0.00 84 1008.1
20260504080202 53 140 0.0 0.0 0.00 0.00 0.00 83 1008.3
20260504070202 56 107 0.0 0.0 0.00 0.00 0.00 80 1008.1